Tracking 29606 objects as of 19-Sep-2024
HD Live streaming from Space Station
objects crossing your sky now

ZY-1 02E

Track ZY-1 02E now!
10-day predictions


NORAD ID: 50465
Int'l Code: 2021-131A
Perigee: 780.1 km
Apogee: 781.9 km
Inclination: 98.5 °
Period: 100.3 minutes
Semi major axis: 7151 km
RCS: Unknown
Launch date: December 26, 2021
Source: People's Republic of China (PRC)
Launch site: Taiyaun Space Center, China (TSC)
Your satellite tracking list
Your tracking list is empty




NASA's NSSDC Master Catalog

Two Line Element Set (TLE):
1 50465U 21131A   24262.85576132  .00000496  00000-0  18801-3 0  9991
2 50465  98.5031 340.3986 0001283 107.6192 252.5133 14.35368063143133
Source of the keplerian elements: AFSPC